Regional Weather Roundup
Issued by NWS

Home | Current Version | Previous Version | Graphics & Text | Print | Product List | Glossary On
Versions: 1 2 3 4 5 6 7 8 9 10 11 12 13 14 15 16 17 18 19 20 21 22 23 24 25 26 27 28 29 30 31 32 33 34 35 36 37 38 39 40 41 42 43 44 45 46 47 48 49 50
000
ASUS45 KBOU 070210
RWRCO

WEATHER ROUNDUP FOR COLORADO
NATIONAL WEATHER SERVICE DENVER/BOULDER CO
800 PM MDT MON JUL 06 2015

NOTE: "FAIR" INDICATES FEW OR NO CLOUDS BELOW 12000 FEET WITH NO
SIGNIFICANT WEATHER AND/OR OBSTRUCTIONS TO VISIBILITY.

COZ001>005-013-030-031-070300-
...NORTHWEST COLORADO...

CITY           SKY/WX    TMP DP  RH WIND       PRES   REMARKS
CRAIG          CLOUDY    73  53  49 W9        30.15R
HAYDEN         MOCLDY    72  52  49 E10       30.17S
MEEKER         MOCLDY    70  57  63 CALM      30.17R
MOUNT WERNER   NOT AVBL
STEAMBOAT SPGS MOCLDY    68  54  60 CALM      30.21R
WALDEN         PTCLDY    61  46  59 NE7       30.31R
$$

COZ006>008-011-070300-
...WEST CENTRAL VALLEYS...

CITY           SKY/WX    TMP DP  RH WIND       PRES   REMARKS
GRAND JUNCTION CLOUDY    77  45  32 SW13      30.06R
MONTROSE       MOCLDY    78  49  35 N5        30.14R
EAGLE          PTCLDY    72  54  53 CALM      30.21R
RIFLE          MOCLDY    77  58  51 CALM      30.10R
DELTA          MOCLDY    79  54  42 N6        30.09R
NUCLA          MOCLDY    72  52  49 N6        30.19R
$$

COZ017>023-064>068-070300-
...SOUTHWEST COLORADO...

CITY           SKY/WX    TMP DP  RH WIND       PRES   REMARKS
DURANGO        CLOUDY    68  54  60 CALM      30.20S
CORTEZ         CLEAR     76  51  41 N6        30.14S
PAGOSA SPRINGS CLOUDY    64  52  64 CALM      30.28S
TELLURIDE      CLOUDY    59  47  64 W14G25    30.40R
WOLF CREEK PAS NOT AVBL
$$

COZ009-010-012-014-032>034-037-058>063-070300-
...CENTRAL COLORADO...

CITY           SKY/WX    TMP DP  RH WIND       PRES   REMARKS
ASPEN          PTCLDY    64  47  53 CALM      30.27R
BUENA VISTA    CLOUDY    57  52  82 SE12      30.37R
COPPER MTN     PTCLDY    52  43  71 W7        30.59S
BERTHOUD PASS  HAZE      37  30  75 MISG      30.63S VSB<1/4
COTTONWOOD PAS NOT AVBL
GUNNISON       PTCLDY    70  45  40 CALM      30.30R
KREMMLING      PTCLDY    64  48  55 CALM      30.27R
LEADVILLE      PTCLDY    53  47  79 S12       30.44R
MONARCH PASS   FOG       43  41  93 E10       30.69R VSB<1/4
SALIDA         CLOUDY    58  54  86 E5        30.42R
SUNLIGHT       PTCLDY    54  50  87 CALM      30.53R
WILKERSON PASS FOG       43  43 100 SE5       30.59S VSB 1/2
$$

COZ069>075-070300-
...SAN LUIS VALLEY/SANGRE DE CRISTO MOUNTAINS...

CITY           SKY/WX    TMP DP  RH WIND       PRES   REMARKS
ALAMOSA        LGT RAIN  56  53  90 E10       30.32R
LA VETA PASS   RAIN      45  43  93 MISG      30.50R VSB 1/4
SAGUACHE       MOCLDY    59  54  82 SE9       30.34R
$$

COZ035-036-038>040-070300-
...NORTHERN COLORADO FRONT RANGE...

CITY           SKY/WX    TMP DP  RH WIND       PRES   REMARKS
DENVER INTL AP CLOUDY    63  53  70 E5        30.25S FOG
DMNS CITY PARK   N/A     61  57  88 SW1G7     30.26S
AURORA         CLOUDY    62  54  75 E5        30.28S
FRONT RANGE AP MOCLDY    63  54  72 E6        30.27S HAZE
ERIE MUNI ARPT CLOUDY    60  59  94 W3        30.25S FOG
BOULDER MUN AP RAIN      59  59 100 CALM      30.26S
CENTENNIAL     CLOUDY    60  55  83 E5        30.28S
BROOMFIELD     DRIZZLE   59  57  94 CALM      30.28S
FORT COLLINS   CLOUDY    61  57  88 W6        30.27R
LONGMONT       CLOUDY    63  59  88 SW3       30.27R FOG
$$

COZ041-046-047-076>085-087-088-070300-
...PIKES PEAK/PALMER DIVIDE AND SOUTHERN FOOTHILLS...

CITY           SKY/WX    TMP DP  RH WIND       PRES   REMARKS
COLO. SPRINGS  CLOUDY    60  54  80 E6        30.31R FOG
A. F. ACADEMY  CLOUDY    57  56  99 NW2       30.31S
ELLICOTT       CLOUDY   N/A N/A N/A NE5       30.30R
FALCON         CLOUDY    56  54  92 NE5       30.35R
FORT CARSON    CLOUDY    59  57  95 NW3       30.29R
LIMON          CLOUDY    63  52  67 NE8       30.26R HAZE
MONUMENT HILL  CLOUDY    54  52  94 MISG      30.34S
TRINIDAD       CLOUDY    63  58  83 CALM      30.25S
$$

COZ042>045-048>051-090-091-070300-
...NORTHEAST COLORADO...

CITY           SKY/WX    TMP DP  RH WIND       PRES   REMARKS
GREELEY ARPT   MOCLDY    64  54  68 NE5       30.24R
AKRON          CLOUDY    64  52  64 NE8       30.23R HAZE
BURLINGTON     PTCLDY    66  53  63 NE9       30.20R HAZE
WRAY           CLOUDY    70  51  50 NE13      30.19R HAZE
STERLING       CLOUDY    66  55  68 NE6         N/A  HAZE
HOLYOKE        MOCLDY    70  52  52 NE8       30.20R HAZE
FORT MORGAN    CLOUDY    65  51  59 E6        30.23R
$$

COZ086-089-092>099-070300-
...SOUTHEAST COLORADO...

CITY           SKY/WX    TMP DP  RH WIND       PRES   REMARKS
PUEBLO         CLOUDY    69  57  65 CALM      30.23R
LA JUNTA       CLOUDY    71  55  56 N8        30.19R
LAMAR          CLOUDY    72  55  55 NE10      30.14R HAZE
SPRINGFIELD      N/A     66  58  75 N12       30.17R
$$


USA.gov is the U.S. government's official web portal to all federal, state and local government web resources and services.